DELTA 1 DEB, 10712

Orbit data source: Space-Track

DELTA 1 DEB, 10712 is space debris in SSO originally from a launch on Thu, 29 Jul 1976 UTC launched from the Air Force Western Test Range (AFWTR). Debris objects in space refer to the collection of defunct objects orbiting the Earth. Examples of debris include non-operational satellites, rocket bodies, and fragments generated from explosions, collisions, or faulty payload assembly.

Loading next visibility...
Identifier
10712, 1976-077AH
Orbit
SSO
Country
Flag of USUS
Related business
Manufacturer
Unknown
Mission
Spacecraft
Bus & Motor
Unknown
Mass
Unknown
Launch date (UTC)
1976-07-29 (49 years ago)
Launch vehicle
Unknown
Launch site
Air Force Western Test Range (AFWTR)
Object type
Payload
Rocket body
Debris
Shape & HBR
Unknown
Radar Cross Section
Small (<0.1 m²)

Expand to show TLE details & history
Last TLE update: 21 hours ago

TLE from 21 hours ago
0 DELTA 1 DEB
1 10712U 76077AH  25242.16255102  .00001112  00000-0  86065-2 0  9997
2 10712 102.2232   9.6911 0071315 271.6576 271.6616 12.39912138211576
Epoch: 2025-08-30T03:54Z
TLE epoch observation values (Epoch: 2025-08-30T03:54:04.408Z)
Latitude
-2.56336°
Longitude
152.01896°
Altitude
1,508.655 km
Speed
7.111 km/s
True Right ascension
12h 36m 33s
True Declination
-2° 32' 58"
Sunlit
Object was in daylight at epoch
Visualization orbit readout
Latitude
Unknown
Longitude
Unknown
Altitude
Unknown
Speed
Unknown
Apparent Right ascension
Unknown
Apparent Declination
Unknown
Sunlit
N/A
Visualization observer readout
Local Sidereal Time
16:42:02
Azimuth
Unknown
Elevation
Unknown
Doppler factor
Unknown
Orbital elements
Apogee altitude
1,560.779 km
Perigee altitude
1,448.348 km
Semi-major axis
7,882.701 km
Eccentricity
0.00713
Inclination
102.2232°
RAAN
9.6911°
Arg. of periapsis
271.6576°
True anomaly
270.84455°
Mean anomaly
271.6616°
Eccentric anomaly
271.25309°
Mean motion
3.10121 °/min
Orbital period
116.08 mins
BSTAR
0.0086065
Loading maneuver chart data...
Computing Atmospheric mass density...
Loading historical data...
Loading historical data...
Loading historical data...
Loading historical data...
Loading historical data...
Loading historical data...
Loading historical data...

Documentation

Showing up to 5 results
|